TimeCDT,TemperatureF,Dew PointF,Humidity,Sea Level PressureIn,VisibilityMPH,Wind Direction,Wind SpeedMPH,Gust SpeedMPH,PrecipitationIn,Events,Conditions,WindDirDegrees,DateUTC
12:53 AM,75.0,72.0,90,30.05,10.0,SE,8.1,-,N/A,,Overcast,140,2012-10-05 05:53:00
1:53 AM,75.0,72.0,90,30.04,10.0,SE,6.9,-,N/A,,Overcast,130,2012-10-05 06:53:00
2:16 AM,75.2,71.6,89,30.09,10.0,SE,6.9,-,N/A,,Overcast,140,2012-10-05 07:16:00
2:53 AM,73.4,71.6,94,30.08,10.0,SE,4.6,-,N/A,,Overcast,140,2012-10-05 07:53:00
3:53 AM,73.0,72.0,96,30.03,10.0,SSE,4.6,-,N/A,,Overcast,160,2012-10-05 08:53:00
4:53 AM,71.1,70.0,96,30.02,10.0,SE,4.6,-,N/A,,Mostly Cloudy,130,2012-10-05 09:53:00
5:39 AM,69.8,69.8,100,30.08,7.0,ESE,4.6,-,N/A,,Mostly Cloudy,110,2012-10-05 10:39:00
5:53 AM,69.1,69.1,100,30.03,7.0,ESE,5.8,-,N/A,,Mostly Cloudy,120,2012-10-05 10:53:00
6:09 AM,68.0,68.0,100,30.09,7.0,ESE,4.6,-,N/A,,Scattered Clouds,120,2012-10-05 11:09:00
6:42 AM,68.0,68.0,100,30.09,6.0,ESE,6.9,-,N/A,,Mostly Cloudy,120,2012-10-05 11:42:00
6:53 AM,69.1,69.1,100,30.04,6.0,ESE,5.8,-,N/A,,Mostly Cloudy,120,2012-10-05 11:53:00
7:09 AM,69.8,69.8,100,30.09,5.0,ESE,4.6,-,N/A,,Overcast,120,2012-10-05 12:09:00
7:18 AM,69.8,69.8,100,30.10,4.0,ESE,4.6,-,N/A,,Overcast,120,2012-10-05 12:18:00
7:32 AM,69.8,69.8,100,30.10,2.5,ESE,5.8,-,N/A,,Overcast,120,2012-10-05 12:32:00
7:53 AM,70.0,70.0,100,30.05,2.5,SE,6.9,-,N/A,,Overcast,130,2012-10-05 12:53:00
8:23 AM,71.6,71.6,100,30.10,5.0,SSE,6.9,-,N/A,,Overcast,150,2012-10-05 13:23:00
8:53 AM,71.1,70.0,96,30.06,5.0,SSE,8.1,-,N/A,,Overcast,150,2012-10-05 13:53:00
9:33 AM,73.4,69.8,88,30.12,10.0,South,10.4,-,N/A,,Overcast,170,2012-10-05 14:33:00
9:53 AM,75.0,71.1,87,30.07,10.0,South,11.5,-,N/A,,Mostly Cloudy,170,2012-10-05 14:53:00
10:08 AM,75.2,69.8,83,30.12,10.0,South,13.8,-,N/A,,Mostly Cloudy,180,2012-10-05 15:08:00
10:53 AM,77.0,69.1,76,30.07,10.0,South,12.7,-,N/A,,Scattered Clouds,170,2012-10-05 15:53:00
11:53 AM,81.0,64.9,58,30.05,10.0,South,11.5,18.4,N/A,,Partly Cloudy,170,2012-10-05 16:53:00
12:53 PM,82.9,64.9,54,30.03,10.0,SSE,8.1,-,N/A,,Scattered Clouds,160,2012-10-05 17:53:00
1:53 PM,84.0,64.9,53,30.01,10.0,South,12.7,19.6,N/A,,Partly Cloudy,170,2012-10-05 18:53:00
2:53 PM,86.0,64.9,49,29.97,10.0,South,11.5,-,N/A,,Partly Cloudy,170,2012-10-05 19:53:00
3:53 PM,87.1,64.9,48,29.95,10.0,SSE,11.5,-,N/A,,Partly Cloudy,160,2012-10-05 20:53:00
4:53 PM,86.0,64.0,48,29.93,10.0,South,9.2,-,N/A,,Partly Cloudy,180,2012-10-05 21:53:00
5:53 PM,86.0,63.0,46,29.92,10.0,SSE,12.7,-,N/A,,Partly Cloudy,160,2012-10-05 22:53:00
6:53 PM,84.0,62.1,47,29.93,10.0,South,8.1,-,N/A,,Partly Cloudy,180,2012-10-05 23:53:00
7:53 PM,81.0,64.0,56,29.93,10.0,SSE,3.5,-,N/A,,Partly Cloudy,160,2012-10-06 00:53:00
8:53 PM,78.1,64.9,64,29.94,10.0,SSE,6.9,-,N/A,,Partly Cloudy,150,2012-10-06 01:53:00
9:53 PM,75.0,66.0,73,29.95,10.0,ESE,4.6,-,N/A,,Partly Cloudy,110,2012-10-06 02:53:00
10:53 PM,75.0,69.1,82,29.96,10.0,SSE,8.1,-,N/A,,Clear,160,2012-10-06 03:53:00
11:53 PM,73.9,69.1,85,29.96,10.0,SSE,8.1,-,N/A,,Clear,160,2012-10-06 04:53:00